Location: ????? ???????
(25.7275°N, 32.5929°E)
Time: 04:58:15
(UTC+00:00)

Daily predictions for brighter satellites

Satellite Brightness Start Highest point End
(mag) Time Altitude Azimuth Time Altitude Azimuth Time Altitude Azimuth
H-2A ROCKET BODY 3.8 00:47:42 35° ENE 00:47:42 35° ENE 00:54:36 10° E
ATLAS 3B CENTAUR R/B 4.3 00:46:38 45° SSE 00:47:59 46° SSE 01:00:14 10° E
Cosmos 1833 Rocket 4.2 00:56:17 32° ENE 00:56:17 32° ENE 00:59:36 10° NNE
USA 234 3.8 00:49:06 10° NE 00:54:01 53° ENE 00:54:01 53° ENE
Cosmos 1605 Rocket 4.2 01:24:12 59° N 01:24:12 59° N 01:29:03 10° N
Gbstr 26 Del rocket 4.1 01:24:44 64° N 01:25:32 71° NE 01:31:19 10° SE
CENTAUR R/B 4.3 01:26:58 10° SSE 01:30:55 22° ESE 01:35:17 10° ENE
Cosmos 2056 Rocket 3.7 01:32:56 65° ENE 01:32:56 65° ENE 01:37:35 10° NNE
Meteor 1-10 Rocket 4.4 01:32:10 53° SSE 01:33:18 66° E 01:38:47 10° NNE
ATLAS CENTAUR R/B 2.3 01:35:23 56° E 01:35:23 56° E 01:39:38 10° NE
Cosmos 1346 Rocket 4.4 01:36:06 33° NE 01:36:06 33° NE 01:38:40 10° NNE
CZ-2C R/B 4.2 01:31:21 10° SE 01:35:56 33° ENE 01:40:34 10° N
ASTRO E2 4.4 01:40:22 30° NE 01:40:22 30° NE 01:42:34 10° ENE
Cosmos 1420 Rocket 4.0 01:44:00 62° SSE 01:44:50 77° ESE 01:50:04 10° NNE
Skynet4D Del rocket 4.4 01:45:18 38° S 01:46:00 40° SSE 01:51:04 10° E
Cosmos 1441 Rocket 4.3 01:46:52 40° E 01:46:57 40° E 01:50:26 10° NNE
DELTA 2 R/B (1) 4.3 01:49:14 39° NNW 01:49:17 39° NNW 01:54:31 10° NE
METEOR-M 4.5 01:44:24 10° N 01:48:37 49° NNW 01:48:37 49° NNW
IRS-P3 4.1 01:50:20 10° N 01:55:26 59° WNW 01:55:26 59° WNW
Atlas Centaur 2 3.0 01:53:42 42° WNW 01:56:27 64° N 02:03:20 10° ENE
Cosmos 407 Rocket 4.2 01:54:51 10° N 02:00:05 56° ENE 02:05:18 10° SSE
Cosmos 2173 Rocket 4.5 01:55:38 10° S 02:01:41 60° E 02:07:41 10° NNE
Meteor 1-14 Rocket 4.2 02:00:21 10° NNW 02:06:08 61° W 02:11:45 10° S
Cosmos 1656 3.7 02:01:35 10° NNW 02:07:18 79° ENE 02:12:55 10° SSE
CZ-2D R/B 4.1 02:04:51 10° N 02:07:30 37° NNW 02:07:30 37° NNW
Meteor 1-29 2.9 02:10:32 10° N 02:13:25 65° NNW 02:13:25 65° NNW
SWIFT 3.3 02:14:07 31° SSW 02:14:17 31° S 02:17:57 10° SE
SL-08 R/B 3.7 02:12:26 10° SSE 02:16:58 63° ENE 02:21:33 10° N
ARIANE 5 R/B 3.2 02:16:16 10° N 02:20:32 31° WNW 02:20:32 31° WNW
GP-B 4.3 02:17:04 10° SSE 02:21:16 44° E 02:25:30 10° NNE
Meteor 1-11 Rocket 4.1 02:17:12 10° N 02:23:10 74° E 02:29:03 10° SSE
H-2A R/B 2.5 02:20:02 10° NNE 02:23:41 87° ESE 02:27:20 10° S
Cosmos 1452 Rocket 4.0 02:20:23 10° S 02:25:33 63° ESE 02:30:45 10° NNE
NOAA 11 4.4 02:23:51 10° NNE 02:29:19 76° ESE 02:34:45 10° S
Cosmos 2100 Rocket 3.9 02:23:54 10° SSW 02:30:01 69° W 02:36:08 10° N
CZ-4B R/B 4.4 02:25:15 10° NNE 02:30:22 54° ESE 02:35:30 10° S
Cosmos 1633 Rocket 2.9 02:28:41 10° N 02:32:58 70° W 02:37:16 10° S
ATLAS 5 CENTAUR R/B 4.2 02:31:32 10° SSW 02:35:38 14° S 02:42:48 10° SSE
USA 234 4.4 02:33:02 10° NNE 02:38:08 25° NW 02:41:22 17° WNW
Cosmos 1484 Rocket 4.2 02:35:14 10° NNW 02:37:39 20° WNW 02:37:39 20° WNW
Cosmos 1833 Rocket 4.1 02:38:02 17° WNW 02:38:17 17° WNW 02:41:58 10° NNW
Cosmos 1328 Rocket 4.4 02:38:03 25° W 02:38:52 26° W 02:42:33 10° NNW
Cosmos 2098 Rocket 2.3 02:36:30 10° NNW 02:39:20 47° W 02:42:29 10° S
Cosmos 2016 Rocket 4.1 02:36:20 10° S 02:42:37 85° E 02:49:00 10° N
Cosmos 1666 Rocket 4.0 02:38:29 10° NNW 02:42:39 40° W 02:46:50 10° SSW
CZ-2C R/B 3.4 02:38:33 10° N 02:44:06 53° WNW 02:49:24 10° SSW
Meteor 1-19 Rocket 4.1 02:39:56 10° S 02:45:29 82° W 02:50:56 10° N
ATLAS 3B CENTAUR R/B 4.2 02:35:08 17° WSW 02:45:30 82° SSE 02:58:30 10° ENE
BREEZE-M DEB (TANK) 3.4 02:39:35 10° SW 02:46:04 45° SE 02:48:47 10° ENE
COSMOS 2406 3.9 02:43:05 16° WSW 02:46:47 31° WNW 02:51:46 10° N
Cosmos 2082 Rocket 2.6 02:42:55 10° SW 02:48:12 41° WNW 02:53:28 10° N
Meteor 1-4 Rocket 2.4 02:46:47 10° N 02:50:24 75° W 02:54:02 10° S
Envisat 3.9 02:49:15 10° NNW 02:53:31 28° WNW 02:57:46 10° SW
Cosmos 44 Rocket 4.1 02:52:53 14° WSW 02:56:11 28° WNW 03:00:15 10° N
Cosmos 1515 Rocket 4.1 02:52:46 10° SSW 02:56:46 35° W 03:00:50 10° NNW
PSLV R/B 4.1 02:57:17 10° N 03:01:13 35° WNW 03:05:07 10° SW
FALCON 9 R/B 1.1 02:59:39 11° NW 03:01:41 44° NNE 03:04:27 10° E
Cosmos 1536 3.3 02:57:58 10° NNW 03:01:43 38° W 03:05:28 10° SSW
Landsat 4 3.8 03:03:02 10° NNE 03:06:41 76° ESE 03:10:20 10° S
Cosmos 1697 Rocket 2.7 03:06:14 10° NNW 03:11:47 61° WSW 03:17:20 10° S
Cosmos 1461 3.0 03:09:33 10° SW 03:13:18 48° WNW 03:17:10 10° NNE
Cosmos 1470 Rocket 4.0 03:09:35 10° NNW 03:13:34 37° W 03:17:35 10° SSW
ATLAS CENTAUR R/B 3.7 03:12:08 10° WNW 03:13:56 12° NW 03:15:45 10° NNW
Cosmos 1802 Rocket 4.5 03:08:56 10° SSW 03:14:52 40° W 03:20:47 10° NNW
CZ-2C R/B 3.8 03:12:35 10° SW 03:16:11 19° W 03:19:48 10° NW
ASTRO E2 3.8 03:15:40 10° WNW 03:19:15 34° N 03:22:51 10° ENE
SL-24 R/B - RUBIN 2 3.7 03:15:04 10° SW 03:19:42 57° WNW 03:24:03 10° NNE
CENTAUR R/B 3.0 03:16:14 10° WSW 03:21:03 33° NW 03:26:39 10° N
Tsikada Rocket 4.5 03:15:12 10° N 03:21:28 70° E 03:27:38 10° SSE
